Location: Ciserano
(45.5833°N, 9.6000°E)
Time: 18:09:17
(UTC+00:00)

BREEZE-M (TANK) - Pass Details

Date: 29 November 2020
Orbit: 267 x 17601 km, 49.5° (Epoch: 22 January)

Event Time Altitude Azimuth Distance (km) Brightness Sun altitude
Rises 05:55:25 0° 233° (SW) 6,278 7.6 -7.7°
Reaches altitude 10° 06:01:23 10° 230° (SW) 3,556 6.4 -6.8°
Maximum altitude 06:07:53 50° 156° (SSE) 701 3.5 -5.7°
Drops below altitude 10° 06:10:19 10° 78° (ENE) 1,346 5.4 -5.3°
Sets 06:11:38 0° 71° (ENE) 1,999 6.2 -5.1°
